Location: Hurecourt
(47.9030°N, 6.0653°E)
Time: 08:17:29
(UTC+00:00)

Cosmos 1818 - Pass Details

Date: 14 July 2020
Orbit: 777 x 796 km, 65.0° (Epoch: 14 August)

Event Time Altitude Azimuth Distance (km) Brightness Sun altitude
Rises 02:58:23 0° 319° (NW) 3,309 6.9 -7.7°
Reaches altitude 10° 03:00:51 10° 316° (NW) 2,375 6.1 -7.4°
Maximum altitude 03:06:12 58° 239° (WSW) 925 3.7 -6.8°
Drops below altitude 10° 03:11:31 10° 161° (SSE) 2,357 5.8 -6.1°
Sets 03:13:57 0° 157° (SSE) 3,281 6.6 -5.8°
